| time (UTC) | temp C | wind direction | speed KPH | gust KPH | rain 1hr cm | rain 24hr cm | rain mn cm | humidity % | barometer mb |
| 20260906063944 | 22 | 337 | 3.2 | 6.4 | 0.00 | 0.00 | 0.00 | 62 | 993.0 |
| 20260906061943 | 22 | 315 | 4.8 | 12.9 | 0.00 | 0.00 | 0.00 | 64 | 992.0 |
| 20260906055943 | 21 | 315 | 0.0 | 1.6 | 0.00 | 0.00 | 0.00 | 66 | 992.0 |
| 20260906053943 | 20 | 315 | 1.6 | 4.8 | 0.00 | 0.00 | 0.00 | 68 | 992.0 |
| 20260906051943 | 20 | 315 | 1.6 | 6.4 | 0.00 | 0.00 | 0.00 | 71 | 992.0 |
| 20260906045944 | 18 | 315 | 0.0 | 3.2 | 0.00 | 0.00 | 0.00 | 71 | 992.0 |
| 20260906043944 | 17 | 315 | 0.0 | 1.6 | 0.00 | 0.00 | 0.00 | 70 | 992.0 |
| 20260906041945 | 18 | 315 | 0.0 | 0.0 | 0.00 | 0.00 | 0.00 | 68 | 991.0 |
| 20260906035944 | 18 | 337 | 0.0 | 3.2 | 0.00 | 0.00 | 0.00 | 66 | 991.0 |
| 20260906033944 | 18 | 315 | 0.0 | 3.2 | 0.00 | 0.00 | 0.00 | 64 | 990.0 |
| 20260906031944 | 20 | 337 | 0.0 | 3.2 | 0.00 | 0.00 | 0.00 | 63 | 990.0 |
| 20260906025944 | 20 | 337 | 3.2 | 8.0 | 0.00 | 0.00 | 0.00 | 61 | 989.0 |
| 20260906023943 | 20 | 337 | 4.8 | 8.0 | 0.00 | 0.00 | 0.00 | 60 | 989.0 |
| 20260906021943 | 20 | 315 | 1.6 | 3.2 | 0.00 | 0.00 | 0.00 | 60 | 989.0 |
| 20260906015944 | 20 | 315 | 1.6 | 4.8 | 0.00 | 0.00 | 0.00 | 63 | 989.0 |
| 20260906013943 | 18 | 315 | 0.0 | 0.0 | 0.00 | 0.00 | 0.00 | 65 | 989.0 |
| 20260906011945 | 18 | 315 | 0.0 | 0.0 | 0.00 | 0.00 | 0.00 | 63 | 989.0 |
| 20260906005943 | 18 | 315 | 0.0 | 0.0 | 0.00 | 0.00 | 0.00 | 63 | 989.0 |
| 20260906003944 | 18 | 315 | 0.0 | 0.0 | 0.00 | 0.00 | 0.00 | 63 | 989.0 |
| 20260906001944 | 20 | 315 | 0.0 | 0.0 | 0.00 | 0.00 | 0.00 | 61 | 989.0 |
| 20260905235945 | 20 | 315 | 0.0 | 0.0 | 0.00 | 0.00 | 0.00 | 59 | 989.0 |
| 20260905233944 | 20 | 315 | 0.0 | 0.0 | 0.00 | 0.00 | 0.00 | 60 | 989.0 |
| 20260905231944 | 20 | 315 | 0.0 | 0.0 | 0.00 | 0.00 | 0.00 | 61 | 990.0 |
| 20260905225944 | 20 | 315 | 0.0 | 0.0 | 0.00 | 0.00 | 0.00 | 61 | 989.0 |
| 20260905223944 | 18 | 292 | 0.0 | 0.0 | 0.00 | 0.00 | 0.00 | 63 | 990.0 |
| 20260905221944 | 18 | 292 | 0.0 | 0.0 | 0.00 | 0.00 | 0.00 | 64 | 990.0 |
| 20260905215944 | 18 | 225 | 0.0 | 0.0 | 0.00 | 0.00 | 0.00 | 65 | 990.0 |
| 20260905213943 | 18 | 202 | 0.0 | 0.0 | 0.00 | 0.00 | 0.00 | 65 | 990.0 |
| 20260905211944 | 18 | 202 | 0.0 | 0.0 | 0.00 | 0.00 | 0.00 | 65 | 990.0 |
| 20260905205943 | 18 | 202 | 0.0 | 0.0 | 0.00 | 0.00 | 0.00 | 64 | 990.0 |
| 20260905203945 | 20 | 202 | 0.0 | 0.0 | 0.00 | 0.00 | 0.00 | 64 | 990.0 |
| 20260905201945 | 20 | 225 | 0.0 | 0.0 | 0.00 | 0.00 | 0.00 | 62 | 990.0 |
| 20260905195944 | 20 | 225 | 0.0 | 0.0 | 0.00 | 0.00 | 0.00 | 62 | 990.0 |
| 20260905193944 | 20 | 225 | 0.0 | 0.0 | 0.00 | 0.00 | 0.00 | 60 | 990.0 |
| 20260905191943 | 20 | 202 | 0.0 | 0.0 | 0.00 | 0.00 | 0.00 | 60 | 990.0 |
| 20260905185944 | 20 | 202 | 0.0 | 0.0 | 0.00 | 0.00 | 0.00 | 58 | 990.0 |
| 20260905183944 | 21 | 180 | 0.0 | 0.0 | 0.00 | 0.00 | 0.00 | 57 | 990.0 |
| 20260905181944 | 21 | 202 | 0.0 | 0.0 | 0.00 | 0.00 | 0.00 | 56 | 990.0 |
| 20260905175943 | 22 | 180 | 0.0 | 0.0 | 0.00 | 0.00 | 0.00 | 55 | 990.0 |
| 20260905173943 | 22 | 202 | 0.0 | 0.0 | 0.00 | 0.00 | 0.00 | 56 | 989.0 |
| 20260905171944 | 23 | 202 | 0.0 | 1.6 | 0.00 | 0.00 | 0.00 | 55 | 989.0 |
| 20260905165944 | 25 | 135 | 0.0 | 0.0 | 0.00 | 0.00 | 0.00 | 54 | 989.0 |
| 20260905163945 | 25 | 157 | 0.0 | 0.0 | 0.00 | 0.00 | 0.00 | 51 | 990.0 |
| 20260905161943 | 26 | 157 | 0.0 | 3.2 | 0.00 | 0.00 | 0.00 | 49 | 990.0 |
| 20260905155945 | 27 | 157 | 0.0 | 1.6 | 0.00 | 0.00 | 0.00 | 48 | 990.0 |
| 20260905153944 | 28 | 157 | 0.0 | 3.2 | 0.00 | 0.00 | 0.00 | 45 | 989.0 |
| 20260905151428 | 28 | 157 | 1.6 | 3.2 | 0.00 | 0.00 | 0.00 | 43 | 989.0 |
| 20260905145429 | 30 | 157 | 1.6 | 9.7 | 0.00 | 0.00 | 0.00 | 41 | 989.0 |
| 20260905143429 | 30 | 135 | 1.6 | 8.0 | 0.00 | 0.00 | 0.00 | 41 | 990.0 |
| 20260905141430 | 30 | 135 | 3.2 | 6.4 | 0.00 | 0.00 | 0.00 | 40 | 990.0 |
| 20260905135429 | 30 | 135 | 3.2 | 6.4 | 0.00 | 0.00 | 0.00 | 41 | 990.0 |
| 20260905133429 | 30 | 135 | 3.2 | 8.0 | 0.00 | 0.00 | 0.00 | 40 | 990.0 |
| 20260905131429 | 31 | 135 | 3.2 | 4.8 | 0.00 | 0.00 | 0.00 | 37 | 989.0 |
| 20260905125429 | 31 | 135 | 1.6 | 4.8 | 0.00 | 0.00 | 0.00 | 39 | 990.0 |
| 20260905123429 | 31 | 157 | 1.6 | 3.2 | 0.00 | 0.00 | 0.00 | 38 | 990.0 |
| 20260905121429 | 35 | 157 | 0.0 | 4.8 | 0.00 | 0.00 | 0.00 | 31 | 991.0 |
| 20260905115430 | 35 | 180 | 1.6 | 3.2 | 0.00 | 0.00 | 0.00 | 31 | 991.0 |
| 20260905113429 | 35 | 315 | 0.0 | 3.2 | 0.00 | 0.00 | 0.00 | 31 | 991.0 |
| 20260905111429 | 35 | 315 | 0.0 | 3.2 | 0.00 | 0.00 | 0.00 | 31 | 992.0 |
| 20260905105429 | 35 | 337 | 1.6 | 6.4 | 0.00 | 0.00 | 0.00 | 31 | 992.0 |
| 20260905103429 | 35 | 225 | 1.6 | 8.0 | 0.00 | 0.00 | 0.00 | 32 | 992.0 |
| 20260905101429 | 35 | 202 | 0.0 | 4.8 | 0.00 | 0.00 | 0.00 | 32 | 992.0 |
| 20260905095429 | 35 | 157 | 1.6 | 4.8 | 0.00 | 0.00 | 0.00 | 33 | 992.0 |
| 20260905093428 | 35 | 157 | 1.6 | 3.2 | 0.00 | 0.00 | 0.00 | 33 | 992.0 |
| 20260905091429 | 35 | 180 | 1.6 | 8.0 | 0.00 | 0.00 | 0.00 | 35 | 992.0 |
| 20260905085429 | 35 | 157 | 0.0 | 4.8 | 0.00 | 0.00 | 0.00 | 36 | 991.0 |
| 20260905083429 | 33 | 315 | 0.0 | 3.2 | 0.00 | 0.00 | 0.00 | 38 | 991.0 |
| 20260905081429 | 32 | 315 | 0.0 | 1.6 | 0.00 | 0.00 | 0.00 | 39 | 992.0 |
| 20260905075429 | 31 | 315 | 1.6 | 3.2 | 0.00 | 0.00 | 0.00 | 41 | 992.0 |
| 20260905073429 | 30 | 315 | 1.6 | 4.8 | 0.00 | 0.00 | 0.00 | 43 | 991.0 |
| 20260905071429 | 30 | 292 | 0.0 | 1.6 | 0.00 | 0.00 | 0.00 | 45 | 992.0 |
| 20260905065430 | 28 | 315 | 0.0 | 0.0 | 0.00 | 0.00 | 0.00 | 52 | 992.0 |